Home > Time Zones > World Clock > Weather > Sweden > Lund > Past weeks

Flag Weather past 2 weeks in Lund, Sweden

Now
41 °F

Overcast.


Feels Like: 37 °F
Forecast: 39 / 44 °F
Wind: 6 mph from East

Location: Malmo / Sturup

Current Time: Nov 26, 2014 at 8:13:28 PM

Latest Report: Nov 26, 2014 at 7:50 PM


Visibility: N/A

Pressure: 30.21 "Hg

Humidity: 87%

Dew point: 37 °F

Location of LundLocation

Historic Weather in Lund — Graph

°F

Lund temperature yesterday

Maximum temperature yesterday: 46 °F (at 11:20 AM)
Minimum temperature yesterday: 36 °F (at 5:50 PM)
Average temperature yesterday: 41 °F

Past Weeks' High & Low Weather Summary

 TemperatureHumidityPressure
High52 °F (Nov 12, 6:20 AM)100% (Nov 12, 7:20 PM)30.36 "Hg (Nov 12, 7:20 PM)
Low36 °F (Nov 25, 5:50 PM)76% (Nov 15, 8:50 AM)29.74 "Hg (Nov 16, 5:20 PM)
Average45 °F91%30.08 "Hg
* Reported Nov 11 7:20 PM — Nov 26 7:20 PM, Lund, Weather by CustomWeather, © 2014

Note: Actual official high and low records may vary slightly from our data, if they occured in-between our weather recording intervals... More about our weather records

Advertising

Lund weather history for previous 24 hours

 ConditionsComfort  
Time TempWeatherWind HumidityBarometerVisibility
7:20 PM
Nov 26
41 °FOvercast.6 mph93%30.21 "HgN/A
6:50 PM41 °FPassing clouds.6 mph93%30.21 "HgN/A
6:20 PM41 °FPassing clouds.6 mph93%30.21 "HgN/A
5:50 PM41 °FPassing clouds.6 mph87%30.21 "HgN/A
5:20 PM41 °FPassing clouds.7 mph93%30.21 "HgN/A
4:50 PM41 °FPassing clouds.5 mph87%30.24 "HgN/A
4:20 PM41 °FPassing clouds.3 mph87%30.24 "HgN/A
3:50 PM41 °FPartly cloudy.5 mph87%30.24 "HgN/A
3:20 PM41 °FBroken clouds.6 mph93%30.24 "HgN/A
2:50 PM41 °FPartly sunny.5 mph87%30.24 "HgN/A
2:20 PM43 °FPartly sunny.6 mph87%30.24 "HgN/A
1:50 PM43 °FPartly sunny.5 mph87%30.24 "HgN/A
1:20 PM43 °FPartly sunny.5 mph81%30.27 "HgN/A
12:50 PM43 °FPartly sunny.3 mph81%30.27 "HgN/A
12:20 PM43 °FPartly sunny.3 mph81%30.27 "HgN/A
11:50 AM43 °FPartly sunny.3 mph87%30.27 "HgN/A
11:20 AM41 °FPartly sunny.3 mph87%30.27 "HgN/A
10:50 AM41 °FPartly sunny.6 mph87%30.27 "HgN/A
10:20 AM41 °FPartly sunny.6 mph87%30.27 "HgN/A
9:50 AM41 °FPartly sunny.5 mph87%30.27 "HgN/A
9:20 AM41 °FScattered clouds.7 mph87%30.27 "HgN/A
8:50 AM41 °FOvercast.5 mph87%30.30 "HgN/A
8:20 AM41 °FOvercast.3 mph93%30.30 "HgN/A
7:50 AM41 °FOvercast.3 mph93%30.27 "HgN/A
6:50 AM41 °FPassing clouds.3 mph93%30.27 "HgN/A
6:20 AM41 °FPassing clouds.3 mph93%30.30 "HgN/A
5:50 AM41 °FOvercast.2 mph93%30.27 "HgN/A
5:20 AM39 °FOvercast.2 mph100%30.27 "HgN/A
4:50 AM39 °FOvercast.No wind100%30.27 "HgN/A
4:20 AM39 °FOvercast.No wind100%30.27 "HgN/A
3:50 AM39 °FOvercast.1 mph93%30.30 "HgN/A
3:20 AM37 °FFog.1 mph100%30.30 "Hg6 mi
2:50 AM39 °FOvercast.No wind100%30.30 "HgN/A
2:20 AM39 °FOvercast.No wind100%30.30 "HgN/A
1:50 AM39 °FPassing clouds.No wind100%30.30 "HgN/A
1:20 AM41 °FOvercast.1 mph93%30.30 "HgN/A
12:50 AM41 °FOvercast.No wind100%30.30 "HgN/A
12:20 AM41 °FOvercast.No wind93%30.30 "HgN/A
11:50 PM
Nov 25
41 °FOvercast.No wind100%30.30 "HgN/A
11:20 PM39 °FOvercast.No wind100%30.30 "HgN/A
10:50 PM39 °FFog.No wind100%30.30 "Hg6 mi
10:20 PM39 °FFog.No wind100%30.30 "Hg5 mi
9:50 PM37 °FFog.1 mph100%30.30 "Hg5 mi
9:20 PM39 °FFog.2 mph100%30.30 "Hg4 mi
8:50 PM37 °FFog.No wind100%30.30 "Hg5 mi
8:20 PM37 °FOvercast.2 mph100%30.30 "Hg3 mi
Weather by CustomWeather, © 2014

See weather overviewHow to use our weather pages